This is the latest recevied weather packets stored in our database for station/object KC2TER. If no packets are shown the sender has not sent any weather packets the latest 1 day(s).
| Time | Temp. | Humidity | Pressure | Rain* | Wind** | Luminosity | Snow |
|---|---|---|---|---|---|---|---|
| 1777997050 | 25° C | 56% | 1010.7 hPa | 0 mm | 0.45 m/s, 96° | 722 W/m² | - |
| 1777996746 | 24.44° C | 57% | 1011 hPa | 0 mm | 0 m/s | 734 W/m² | - |
| 1777996442 | 25.56° C | 54% | 1011.2 hPa | 0 mm | 0.89 m/s, 124° | 731 W/m² | - |
| 1777996139 | 25.56° C | 53% | 1011.1 hPa | 0 mm | 0.89 m/s, 53° | 708 W/m² | - |
| 1777995835 | 25.56° C | 54% | 1011 hPa | 0 mm | 0.89 m/s, 60° | 698 W/m² | - |
| 1777995532 | 25.56° C | 53% | 1011 hPa | 0 mm | 0.45 m/s, 95° | 717 W/m² | - |
| 1777995229 | 26.67° C | 51% | 1011.1 hPa | 0 mm | 0.45 m/s, 102° | 709 W/m² | - |
| 1777994926 | 26.11° C | 48% | 1011.2 hPa | 0 mm | 0.45 m/s, 81° | 696 W/m² | - |
| 1777994624 | 25.56° C | 48% | 1011.2 hPa | 0 mm | 1.34 m/s, 75° | 681 W/m² | - |
| 1777994323 | 25.56° C | 48% | 1011.2 hPa | 0 mm | 0.89 m/s, 129° | 672 W/m² | - |
| 1777994020 | 25° C | 49% | 1011.4 hPa | 0 mm | 0 m/s | 668 W/m² | - |
| 1777993718 | 25° C | 49% | 1011.4 hPa | 0 mm | 2.24 m/s, 113° | 665 W/m² | - |
| 1777993415 | 25° C | 49% | 1011.5 hPa | 0 mm | 0.89 m/s, 99° | 649 W/m² | - |
| 1777993114 | 24.44° C | 50% | 1011.1 hPa | 0 mm | 0.45 m/s, 101° | 645 W/m² | - |
| 1777992813 | 24.44° C | 50% | 1011.4 hPa | 0 mm | 1.34 m/s, 106° | 627 W/m² | - |
| 1777992510 | 24.44° C | 51% | 1011.6 hPa | 0 mm | 1.79 m/s, 119° | 623 W/m² | - |
| 1777992209 | 23.89° C | 50% | 1011.6 hPa | 0 mm | 3.13 m/s, 142° | 611 W/m² | - |
| 1777991905 | 23.89° C | 52% | 1011.9 hPa | 0 mm | 0.89 m/s, 97° | 452 W/m² | - |
| 1777991603 | 23.89° C | 52% | 1011.6 hPa | 0 mm | 1.34 m/s, 96° | 104 W/m² | - |
| 1777991300 | 23.89° C | 53% | 1011.8 hPa | 0 mm | 2.24 m/s, 124° | 247 W/m² | - |
| 1777990998 | 23.33° C | 54% | 1011.7 hPa | 0 mm | 0.45 m/s, 95° | 259 W/m² | - |
| 1777990695 | 23.33° C | 54% | 1011.6 hPa | 0 mm | 1.34 m/s, 112° | 275 W/m² | - |
| 1777990392 | 22.78° C | 54% | 1011.7 hPa | 0 mm | 0.89 m/s, 99° | 219 W/m² | - |
| 1777990088 | 22.78° C | 56% | 1011.6 hPa | 0 mm | 0.45 m/s, 83° | 239 W/m² | - |
| 1777989785 | 22.78° C | 55% | 1011.6 hPa | 0 mm | 2.24 m/s, 141° | 373 W/m² | - |
* Rain latest hour (hover to see other rain measurements)
** Current wind speed in m/s (hover to see current wind gust speed)